EST,Max TemperatureF,Mean TemperatureF,Min TemperatureF,Max Dew PointF,MeanDew PointF,Min DewpointF,Max Humidity, Mean Humidity, Min Humidity, Max Sea Level PressureIn, Mean Sea Level PressureIn, Min Sea Level PressureIn, Max VisibilityMiles, Mean VisibilityMiles, Min VisibilityMiles, Max Wind SpeedMPH, Mean Wind SpeedMPH, Max Gust SpeedMPH,PrecipitationIn, CloudCover, Events, WindDirDegrees
2013-12-1,82,72,62,70,66,59,97,78,58,30.11,30.03,29.95,10,8,0,18,7,23,2.70,6,Fog-Rain,340
2013-12-2,72,67,61,67,64,60,100,84,68,29.95,29.89,29.83,10,8,1,15,7,20,0.31,7,Rain,314
2013-12-3,79,69,58,64,61,57,93,72,50,30.00,29.95,29.90,10,10,8,10,3,20,0.00,5,,177
2013-12-4,83,74,64,66,63,62,93,74,54,30.10,30.05,29.99,10,10,10,15,4,18,0.00,4,,159
2013-12-5,82,74,65,70,67,62,93,78,62,30.17,30.12,30.09,10,10,2,24,7,30,0.99,4,Rain,140
2013-12-6,83,76,68,68,66,63,84,70,55,30.19,30.14,30.10,10,10,10,21,10,25,0.00,3,,145
2013-12-7,82,75,67,70,67,64,93,78,63,30.23,30.18,30.15,10,10,5,17,6,21,0.08,5,Rain,24
2013-12-8,83,79,75,72,67,65,82,72,62,30.21,30.16,30.13,10,10,7,22,11,26,0.03,5,Rain,121
2013-12-9,84,79,73,68,66,60,74,63,51,30.20,30.15,30.11,10,10,10,21,10,25,T,4,,140
2013-12-10,84,78,72,70,69,67,82,70,58,30.17,30.13,30.09,10,10,10,15,7,17,0.00,3,,148
2013-12-11,84,76,67,71,67,64,97,76,55,30.21,30.16,30.13,10,10,10,13,5,18,0.00,3,,44
2013-12-12,78,73,68,70,64,55,97,75,53,30.23,30.18,30.14,10,8,0,22,11,31,0.00,5,Fog,350
2013-12-13,79,75,71,64,59,53,69,61,53,30.21,30.15,30.11,10,10,10,22,14,26,0.00,5,,76
2013-12-14,83,78,73,71,69,65,84,75,65,30.12,30.04,30.00,10,10,7,18,16,24,0.04,5,Rain,144
2013-12-15,82,77,71,72,70,65,93,84,74,30.06,29.98,29.94,10,10,4,25,9,31,0.01,5,Rain,243
2013-12-16,74,67,60,64,58,55,90,74,57,30.16,30.10,30.05,10,10,10,15,10,18,0.00,5,,342
2013-12-17,78,68,57,59,56,55,93,69,45,30.19,30.15,30.11,10,10,10,15,7,20,0.00,3,,360
2013-12-18,76,67,58,57,55,51,90,68,46,30.24,30.20,30.15,10,10,10,17,9,22,0.00,1,,337
2013-12-19,78,67,56,62,56,53,86,67,47,30.25,30.20,30.17,10,10,10,17,9,21,0.00,2,,71
2013-12-20,82,77,71,69,64,59,69,64,58,30.20,30.16,30.11,10,10,10,18,12,24,0.00,3,,107
2013-12-21,84,80,76,70,69,66,82,72,61,30.16,30.11,30.07,10,10,10,22,15,29,0.00,3,,131
2013-12-22,84,81,77,71,70,68,79,71,63,30.17,30.13,30.09,10,10,10,24,15,30,T,5,,142
2013-12-23,84,78,71,71,70,68,82,74,65,30.18,30.15,30.12,10,10,10,21,11,25,T,3,Rain,158
2013-12-24,81,73,65,71,65,59,97,79,61,30.18,30.14,30.10,10,10,5,23,9,29,T,6,Fog-Rain,346
2013-12-25,77,74,71,65,62,59,79,70,61,30.18,30.14,30.11,10,10,10,20,13,26,0.03,7,Rain,51
2013-12-26,79,76,73,67,66,64,79,73,67,30.17,30.12,30.07,10,10,10,16,9,21,0.00,6,,68
2013-12-27,82,78,74,68,66,65,74,68,62,30.20,30.15,30.10,10,10,10,17,11,22,T,5,,67
2013-12-28,81,78,75,71,67,64,74,71,67,30.19,30.12,30.04,10,10,7,23,16,29,0.04,6,Rain,101
2013-12-29,83,79,74,72,71,70,93,81,69,30.03,29.99,29.93,10,10,10,23,11,28,0.07,6,,191
2013-12-30,78,74,69,72,68,62,93,83,73,30.15,30.06,29.98,10,9,1,14,6,15,0.02,7,Rain,314
2013-12-31,80,74,68,63,61,59,78,66,54,30.23,30.18,30.11,10,10,10,21,12,25,T,7,,30